Location: Atherton
(17.2661°S, 145.4859°E)
Time: 02:11:57
(UTC+10:00)

Vanguard 1 - Visible Passes

Search period start: 24 June 2025 00:00
Search period end: 04 July 2025 00:00
Orbit: 649 x 3822 km, 34.3° (Epoch: 22 June)

Date Brightness Start Highest point End Pass type
(mag) Time Alt. Az. Time Alt. Az. Time Alt. Az.
24 Jun 12.1 03:49:36 15° NE 03:49:36 15° NE 03:50:36 10° NE visible
24 Jun 12.1 18:15:27 10° WNW 18:36:21 87° SSW 18:46:58 14° ESE visible
24 Jun 12.0 20:46:44 10° W 20:59:33 37° SSW 20:59:33 37° SSW visible
25 Jun 11.9 04:08:07 15° NNE 04:08:07 15° NNE 04:09:23 10° NNE visible
25 Jun 12.1 18:35:48 10° WNW 18:56:06 73° SSW 19:05:23 19° SE visible
25 Jun 12.4 21:08:06 10° WSW 21:17:58 30° SW 21:17:58 30° SW visible
26 Jun 12.0 04:26:36 12° N 04:26:36 12° N 04:27:22 10° N visible
26 Jun 12.1 18:56:30 10° WNW 19:15:51 61° SSW 19:23:47 23° SE visible
26 Jun 12.7 21:29:26 10° WSW 21:36:22 24° SW 21:36:22 24° SW visible
27 Jun 12.1 19:17:33 10° W 19:35:41 51° SSW 19:42:10 28° SSE visible
27 Jun 13.0 21:50:35 10° WSW 21:54:44 18° SW 21:54:44 18° SW visible
28 Jun 12.0 19:38:53 10° W 19:55:37 43° SSW 20:00:32 31° SSE visible
28 Jun 13.2 22:11:24 10° SW 22:13:07 13° SW 22:13:07 13° SW visible
29 Jun 12.1 20:00:22 10° W 20:15:41 37° SSW 20:18:54 33° S visible
30 Jun 12.7 17:48:23 10° WNW 18:10:29 64° SSW 18:23:46 10° SE visible
30 Jun 12.2 20:21:52 10° WSW 20:35:52 34° SSW 20:37:16 33° S visible
01 Jul 12.7 18:09:22 10° W 18:30:31 55° SSW 18:43:02 11° SE visible
01 Jul 12.3 20:43:13 10° WSW 20:55:36 32° SSW 20:55:36 32° SSW visible
02 Jul 12.6 18:30:38 10° W 18:50:41 48° SSW 19:01:23 15° SE visible
02 Jul 12.5 21:04:17 10° WSW 21:13:58 29° SSW 21:13:58 29° SSW visible
03 Jul 12.4 18:52:08 10° W 19:10:58 43° SSW 19:19:44 20° SE visible
03 Jul 12.7 21:25:02 10° WSW 21:32:19 26° SSW 21:32:19 26° SSW visible
